Hourly Weather Roundup
Issued by NWS Central Illinois

Home | Current Version | Previous Version | Text Only | Print | Product List | Glossary On
Versions: 1 2 3 4 5 6 7 8 9 10 11 12 13 14 15 16 17 18 19 20 21 22 23 24 25 26 27 28 29 30 31 32 33 34 35 36 37 38 39 40 41 42 43 44 45 46 47 48 49 50
882
NZUS43 KILX 271710
HWRILX

AREA WEATHER ROUNDUP
NATIONAL WEATHER SERVICE, LINCOLN IL
1200 PM CDT WED JUL 27 2016


CITY           SKY/WX    TMP DP  RH WIND       PRES   REMARKS
BLOOMINGTON    MOSUNNY   82  68  62 CALM      30.06R HX  85
CHAMPAIGN      SUNNY     83  70  64 SE6       30.03F HX  87
DANVILLE       MOSUNNY   82  69  64 CALM      30.01F HX  86
DECATUR        PTSUNNY   84  72  67 SE7       30.03S HX  89
EFFINGHAM      PTSUNNY   84  76  77 E5        30.02F HX  93
FLORA          CLOUDY    85  75  72 CALM      30.00F HX  93
GALESBURG      MOSUNNY   83  69  62 SE6       30.03S HX  86
JACKSONVILLE   PTSUNNY   83  74  73 CALM      30.01F HX  89
LACON          MOSUNNY   83  66  56 CALM      30.03S HX  85
LAWRENCEVILLE  CLOUDY    84  75  74 E3        30.00F HX  92
LITCHFIELD       N/A    N/A N/A N/A MISG        N/A
$$


CITY           SKY/WX    TMP DP  RH WIND       PRES   REMARKS
LINCOLN        MOSUNNY   84  73  69 SE3       30.02F HX  90
MACOMB         MOSUNNY   82  73  74 E5        30.04F HX  87
MATTOON        MOSUNNY  N/A N/A N/A E5        30.01F
MT CARMEL AP   SUNNY     85  74  70 SE3       30.00F HX  93
OLNEY-NOBLE AP PTSUNNY   84  73  70 CALM      30.00F HX  91
PARIS          SUNNY     83  71  66 CALM      30.03F HX  88
PEORIA         MOSUNNY   84  69  60 MISG      30.02F HX  88
PONTIAC        MOSUNNY   84  71  66 SE3       30.05S HX  89
RANTOUL        NOT AVBL
ROBINSON       CLOUDY    83  74  73 NE5       30.01F HX  90
SPRINGFIELD    PTSUNNY   84  73  69 VRB3      30.02S HX  90
TAYLORVILLE    PTSUNNY   84  74  71 MISG      30.02S HX  90
$$

...REGIONAL REPORTS...


CITY           SKY/WX    TMP DP  RH WIND       PRES   REMARKS
CHICAGO O`HARE MOSUNNY   84  63  49 W5        30.02R HX  85
KANKAKEE       SUNNY     86  67  52 SW8       30.05R HX  89
MOLINE         PTSUNNY   85  66  53 SE3       30.01S HX  87
MOUNT STERLING CLOUDY    80  74  81 CALM      30.01F HX  85
MOUNT VERNON   MOSUNNY   86  73  66 MISG      29.99S HX  93
PITTSFIELD     MOSUNNY   82  77  85 NE7       30.02F HX  90
QUINCY         MOSUNNY   83  77  82 E3        30.00F HX  92
ROCKFORD       MOSUNNY   83  65  54 W6        30.05R HX  85
$$


CITY           SKY/WX    TMP DP  RH WIND       PRES   REMARKS
BURLINGTON     SUNNY     84  71  65 SE7       30.00F HX  89
CEDAR RAPIDS   CLOUDY    82  70  66 SE6       30.01S HX  86
DES MOINES     CLOUDY    80  69  69 S6        30.01R HX  83
KIRKSVILLE     MOSUNNY   86  69  56 VRB7      30.01F HX  90
OTTUMWA        MOSUNNY   83  63  50 VRB6      30.01S HX  84
ST LOUIS       PTSUNNY   87  72  60 VRB3      30.00S HX  93
$$


CITY           SKY/WX    TMP DP  RH WIND       PRES   REMARKS
TERRE HAUTE    SUNNY     84  68  58 E5        30.01F HX  87
EVANSVILLE     MOSUNNY   88  74  63 CALM      29.99F HX  96
INDIANAPOLIS   MOSUNNY   84  64  50 VRB3      30.02F HX  85
LAFAYETTE      PTSUNNY   84  67  56 SE5       30.02F HX  86
MADISON        PTSUNNY   83  68  60 SW6       30.01F HX  86
MILWAUKEE      MOSUNNY   87  67  51 W7        30.01R HX  90
$$






USA.gov is the U.S. government's official web portal to all federal, state and local government web resources and services.